FENGYUN 1C DEB, 31237

Orbit data source: Space-Track

FENGYUN 1C DEB, 31237 is space debris in SSO originally from a launch on Mon, 10 May 1999 UTC launched from the Taiyaun Space Center, China (TSC). Fengyun 1C debris stems from the Chinese weather satellite Fengyun-1C, which was intentionally destroyed by a Chinese anti-satellite missile in 2007. This event dramatically increased the amount of space debris, with thousands of trackable fragments posing hazards to satellites and human spaceflight. The Fengyun 1C debris cloud has become a focal point in discussions about space sustainability and the need for international regulations to prevent the creation of new debris.

Loading next visibility...
Identifier
31237, 1999-025BLT
Orbit
SSO
Country
Flag of CNCN / PRC
Related business
Manufacturer
Unknown
Mission
Spacecraft
Bus & Motor
Unknown
Mass
Unknown
Launch date (UTC)
1999-05-10 (27 years ago)
Launch vehicle
Unknown
Launch site
Taiyaun Space Center, China (TSC)
Object type
Payload
Rocket body
Debris
Shape & HBR
Unknown shape, 0.1 m
Radar Cross Section
Medium (>0.1 m² and <1 m²)

Expand to show TLE details & history
Last TLE update: 1 day ago

TLE from 1 day ago
0 FENGYUN 1C DEB
1 31237U 99025BLT 26263.21552042  .00000576  00000-0  22117-3 0  9995
2 31237  98.4657 260.0204 0086858 235.0702 124.2300 14.32082395 12894
Epoch: 2026-09-20T05:10Z
TLE epoch observation values (Epoch: 2026-09-20T05:10:20.964Z)
Latitude
0.00002°
Longitude
-176.67985°
Altitude
823.088 km
Speed
7.423 km/s
True Right ascension
17h 20m 04s
True Declination
0° 00' 00"
Sunlit
Object was in daylight at epoch
Visualization orbit readout
Latitude
Unknown
Longitude
Unknown
Altitude
Unknown
Speed
Unknown
Apparent Right ascension
Unknown
Apparent Declination
Unknown
Sunlit
N/A
Visualization observer readout
Local Sidereal Time
04:06:15
Azimuth
Unknown
Elevation
Unknown
Doppler factor
Unknown
Orbital elements
Apogee altitude
844.1 km
Perigee altitude
719.718 km
Semi-major axis
7,160.046 km
Eccentricity
0.00869
Inclination
98.4657°
RAAN
260.0204°
Arg. of periapsis
235.0702°
True anomaly
125.04789°
Mean anomaly
124.23°
Eccentric anomaly
124.63945°
Mean motion
3.58236 °/min
Orbital period
100.49 mins
BSTAR
0.00022117
Loading maneuver chart data...
Computing Atmospheric mass density...

Documentation

Showing up to 5 results
|